MAYA-1 (43590 NORAD) Tracking and Keplerian Element Data

This shows tracking and keplerian element data for the satellite.

Feedback or suggestion? Click here.




ElementValue
Catalog43590
NameMAYA-1
Epoch Orbit3992
Epoch Day113.65370711
Epoch Year2019
RAAN265.0412
Inclination51.6369
Eccentricity0.0005485
Argument of Perigee298.4269
Mean Anonmoly61.6171
Mean Motion15.60354582
Decay Rate0.00011778
L11 43590U 98067PE 19113.65370711 .00011778 00000-0 14692-3 0 9995
L22 43590 51.6369 265.0412 0005485 298.4269 61.6171 15.60354582 39929

Live tracking and technical data element details for MAYA-1 (NORAD 43590). MAYA-1 can be tracked NOW for your location showing map with azimuth and elevation plus other details from your city location.

Track the satellite on the map from your city or location and see movement details for azimuth, elevation, latitude, longitude, range, height, and movement on the map or in text.







IsCatalogInMostPopularTable: catalog: 43590, numindb: 114
Update: records affected: 1



GetName: 43590 MAYA-1

Hit Count: updated at: Thu, 25 Apr 2019 19:41:45 GMT